Regional Weather Roundup
Issued by NWS

Home | Current Version | Previous Version | Graphics & Text | Print | Product List | Glossary On
Versions: 1 2 3 4 5 6 7 8 9 10 11 12 13 14 15 16 17 18 19 20 21 22 23 24 25 26 27 28 29 30 31 32 33 34 35 36 37 38 39 40 41 42 43 44 45 46 47 48 49 50
409
ASUS45 KBOU 010607
RWRCO

WEATHER ROUNDUP FOR COLORADO
NATIONAL WEATHER SERVICE DENVER/BOULDER CO
1200 AM MDT WED JUN 01 2016

NOTE: "FAIR" INDICATES FEW OR NO CLOUDS BELOW 12000 FEET WITH NO
SIGNIFICANT WEATHER AND/OR OBSTRUCTIONS TO VISIBILITY.

COZ001>005-013-030-031-010700-
...NORTHWEST COLORADO...

CITY           SKY/WX    TMP DP  RH WIND       PRES   REMARKS
CRAIG          FAIR      42  36  79 CALM      30.12S
HAYDEN         FAIR      50  32  50 E8        30.14S
MEEKER         FAIR      47  37  68 E5        30.12S
MOUNT WERNER   NOT AVBL
STEAMBOAT SPGS FAIR      50  32  49 NW5       30.15F
WALDEN         NOT AVBL
$$

COZ006>008-011-010700-
...WEST CENTRAL VALLEYS...

CITY           SKY/WX    TMP DP  RH WIND       PRES   REMARKS
GRAND JUNCTION FAIR      69  29  22 W5        29.98S
MONTROSE       FAIR      56  34  43 SE6       30.05S
EAGLE          FAIR      52  34  50 E5        30.15S
RIFLE          FAIR      51  33  50 SE8       30.05S
DELTA          FAIR      62  34  35 N3        30.00F
NUCLA          FAIR      59  30  33 SE8       30.07S
$$

COZ017>023-064>068-010700-
...SOUTHWEST COLORADO...

CITY           SKY/WX    TMP DP  RH WIND       PRES   REMARKS
DURANGO        FAIR      58  33  39 E9        30.07R
CORTEZ         FAIR      50  34  54 NE6       30.03S
PAGOSA SPRINGS FAIR      57  33  40 CALM      30.16S
TELLURIDE      FAIR      47  31  54 SE8       30.25S
WOLF CREEK PAS NOT AVBL
$$

COZ009-010-012-014-032>034-037-058>063-010700-
...CENTRAL COLORADO...

CITY           SKY/WX    TMP DP  RH WIND       PRES   REMARKS
ASPEN          FAIR      42  32  67 SW8       30.17F
BUENA VISTA    CLOUDY    49  43  81 SE3       30.24R
COPPER MTN     NOT AVBL
BERTHOUD PASS  HAZE      30  21  69 E14G21    30.43R VSB<1/4 WCI  20
COTTONWOOD PAS FAIR      46  37  71 SE3       30.33R
GUNNISON       FAIR      48  32  53 NW6       30.19R
KREMMLING      FAIR      41  32  70 CALM      30.19F
LEADVILLE      FAIR      39  30  70 SE6       30.30R
MONARCH PASS   FOG       36  36 100 E21G29    30.50R VSB<1/4
SALIDA         FAIR      53  46  76 SE6       30.29S
SUNLIGHT       FAIR      43  30  61 CALM      30.36F
WILKERSON PASS FOG       36  34  93 E8G16     30.42S VSB 1/4
$$

COZ069>075-010700-
...SAN LUIS VALLEY/SANGRE DE CRISTO MOUNTAINS...

CITY           SKY/WX    TMP DP  RH WIND       PRES   REMARKS
ALAMOSA        FAIR      52  42  69 E14       30.16R
LA VETA PASS   TSTM      39  37  93 NE16      30.35R VSB 3/4
SAGUACHE       FAIR      50  34  53 S3        30.21S
$$

COZ035-036-038>040-010700-
...NORTHERN COLORADO FRONT RANGE...

CITY           SKY/WX    TMP DP  RH WIND       PRES   REMARKS
DENVER INTL AP CLOUDY    53  49  86 SE13      30.18R
DMNS CITY PARK   N/A     55  48  80 E10G22    30.18R
AURORA         CLOUDY    52  50  92 SE8       30.19R
FRONT RANGE AP NOT AVBL
ERIE MUNI ARPT CLOUDY    56  50  80 CALM      30.17R
BOULDER MUN AP CLOUDY    55  50  82 CALM      30.17S
CENTENNIAL     LGT RAIN  53  49  86 CALM      30.20R
BROOMFIELD     CLOUDY    55  50  82 NE3       30.19R
FORT COLLINS   MOCLDY    57  46  67 NE7       30.18S
LONGMONT       CLOUDY    58  51  77 NW3       30.19R
$$

COZ041-046-047-076>085-087-088-010700-
...PIKES PEAK/PALMER DIVIDE AND SOUTHERN FOOTHILLS...

CITY           SKY/WX    TMP DP  RH WIND       PRES   REMARKS
COLO. SPRINGS  LGT RAIN  52  48  86 E12       30.22R
A. F. ACADEMY  MOCLDY    50  48  93 E7        30.22R
SCHRIEVER AFB  NOT AVBL
ELLICOTT       CLOUDY   N/A N/A N/A E16       30.19S
FALCON         CLOUDY    49  48  97 NE9       30.24S
FORT CARSON    CLOUDY    54  48  82 NE8       30.19F
LIMON          MOCLDY    50  49  96 E5        30.19S
MONUMENT HILL  DRIZZLE   45  45 100 SE7       30.25S
TRINIDAD       CLOUDY    52  46  80 NE18G26   30.18R
$$

COZ042>045-048>051-090-091-010700-
...NORTHEAST COLORADO...

CITY           SKY/WX    TMP DP  RH WIND       PRES   REMARKS
GREELEY ARPT   CLOUDY    57  50  77 CALM      30.18R
AKRON          CLOUDY    55  47  74 E8        30.17R
BURLINGTON     FAIR      56  50  80 S8        30.15R
WRAY           NOT AVBL
STERLING       FAIR      52  45  76 NE6       30.14R
HOLYOKE        NOT AVBL
FORT MORGAN    CLOUDY    53  45  72 E7        30.18R
$$

COZ086-089-092>099-010700-
...SOUTHEAST COLORADO...

CITY           SKY/WX    TMP DP  RH WIND       PRES   REMARKS
PUEBLO         LGT RAIN  55  52  89 E9        30.16R
LA JUNTA       RAIN      55  52  89 N8        30.18R
LAMAR          LGT RAIN  63  57  81 E7        30.11R
SPRINGFIELD      N/A     58  54  86 E8        30.12R
$$




USA.gov is the U.S. government's official web portal to all federal, state and local government web resources and services.